[[{"header":{"parameterUnit":"m.s-1","parameterCategory":1,"la1":30.2991,"la2":30.254,"lo1":-89.0895,"lo2":-89.0444,"dy":0.0017,"dx":0.0017,"nx":28,"ny":28,"refTime":"2023-03-30T21:00:00:Z","depth":0,"parameterNumber":2,"parameterNumberName":"U-component_of_WINDS"},"data":[0,0,0,0,0,0,0,0,0,0,0,0,0,0,0,0,0,0,0,0,0,0,0,0,0,0,0,0,0,0,0,0,0,0,0,0,0,0,0,0,0,0,0,0,0,0,0,0,0,0,0,0,0,0,0,0,0,0,2.51,2.51,0,2.5069,2.5069,2.5068,2.5041,2.5041,2.5041,2.504,2.5011,2.5011,2.501,0,0,0,0,0,0,0,0,0,0,0,0,0,2.5142,2.5141,2.51,2.51,2.5099,2.5069,2.5069,2.5068,2.5041,2.5041,2.5041,2.504,2.5011,2.5011,2.501,0,0,0,0,0,0,0,0,0,0,0,0,0,2.5119,2.5141,2.51,2.5082,2.508,2.5069,2.5069,2.5068,2.5042,2.5041,2.5041,2.504,2.5012,2.5011,2.501,2.5015,0,0,2.5008,2.5008,0,0,0,0,0,0,0,0,2.512,2.5117,2.5085,2.5083,2.5081,2.5059,2.5073,2.505,2.5042,2.5056,2.504,2.504,2.5028,2.5025,2.5021,2.5014,2.5012,2.5008,2.5007,2.5007,2.5007,0,0,0,0,0,0,0,2.5122,2.5118,2.5088,2.5085,2.5082,2.5078,2.5074,2.5068,2.5045,2.5055,2.5053,2.505,2.5026,2.5022,2.502,2.5012,2.5008,2.5007,2.5007,2.5006,2.5012,2.5013,0,0,0,0,0,0,2.5125,2.512,2.5089,2.5087,2.51,2.5077,2.5073,2.5066,2.5045,2.5041,2.505,2.5048,2.5023,2.5021,2.5019,2.5025,2.5007,2.5006,2.5006,2.5011,2.5012,2.5013,0,0,0,0,0,0,2.5126,2.5123,2.509,2.5103,2.5098,2.5077,2.507,2.5066,2.5061,2.5041,2.5037,2.5049,2.5023,2.502,2.5017,2.5024,2.5006,2.5005,2.5011,2.5012,2.5012,2.5037,0,0,0,0,0,0,2.5128,2.5123,2.5123,2.5103,2.5098,2.5087,2.507,2.5066,2.5059,2.5057,2.5039,2.5036,2.5022,2.5018,2.5016,2.5022,2.5005,2.501,2.5011,2.5012,2.5035,2.5038,2.5041,0,0,0,0,0,2.5129,2.5131,2.5123,2.512,2.5097,2.5087,2.5084,2.5068,2.506,2.5061,2.5049,2.5036,2.5024,2.5018,2.5016,2.5022,2.5009,2.5011,2.5012,2.5034,2.5038,2.5041,0,0,0,0,0,0,2.5152,2.5128,2.5119,2.5114,2.5103,2.5083,2.5083,2.5072,2.5063,2.5061,2.5042,2.5039,2.5039,2.503,2.5024,2.5028,2.5015,2.5016,2.5033,2.5036,2.5039,2.5041,2.5004,0,0,0,0,0,2.5157,2.515,2.5129,2.5127,2.5122,2.5104,2.5099,2.5088,2.5076,2.5071,2.5059,2.5049,2.5043,2.5039,2.5032,2.5035,2.5032,2.5038,2.5041,2.5044,2.5045,2.5049,2.5052,2.5017,2.5017,2.5017,0,0,2.5165,2.5152,2.5148,2.5131,2.5121,2.5117,2.51,2.5094,2.5091,2.507,2.5067,2.5058,2.5047,2.5047,2.5047,2.504,2.5054,2.5045,2.5048,2.5047,2.505,2.5054,2.5057,2.5018,2.5018,2.5018,0,0,2.5179,2.5167,2.5165,2.5157,2.5142,2.5131,2.5131,2.5113,2.5107,2.5103,2.5089,2.5086,2.5075,2.5069,2.5064,2.5081,2.507,2.508,2.5094,2.5098,2.5101,2.5104,2.5111,2.5114,2.5081,2.5081,2.5081,0,2.5192,2.5182,2.5166,2.5162,2.5157,2.5139,2.5138,2.5131,2.5116,2.5113,2.5106,2.5095,2.5086,2.5086,2.5091,2.5087,2.5088,2.508,2.5102,2.5104,2.5106,2.5113,2.5116,2.5082,2.5082,2.5082,2.5082,0,2.52,2.5195,2.5195,2.5181,2.5176,2.5174,2.516,2.5157,2.5148,2.5138,2.5137,2.5126,2.5118,2.5118,2.5108,2.5118,2.5115,2.5105,2.5092,2.5111,2.5118,2.512,2.5084,2.5083,2.5083,2.5083,0,0,2.5223,2.5204,2.5204,2.52,2.5185,2.5181,2.5181,2.5173,2.5172,2.5164,2.5164,2.5158,2.5151,2.5145,2.5135,2.5139,2.5157,2.5129,2.5129,2.5136,2.517,2.5177,2.518,2.515,2.515,2.5151,2.5171,0,2.5235,2.5231,2.5218,2.5219,2.5215,2.5201,2.5201,2.5194,2.5186,2.5184,2.5176,2.5172,2.5161,2.5159,2.5162,2.5154,2.5163,2.5152,2.5152,2.5152,2.5154,2.5183,2.519,2.521,2.5174,2.5174,2.5174,0,2.5247,2.524,2.5241,2.523,2.5228,2.5228,2.5222,2.522,2.5213,2.5207,2.5204,2.5194,2.5195,2.5184,2.5188,2.5181,2.518,2.5177,2.5178,2.5176,2.5163,2.5184,2.5215,2.5218,2.5178,2.5178,2.5177,0,2.5265,2.5257,2.5257,2.5253,2.524,2.5241,2.5236,2.5229,2.5227,2.5223,2.5222,2.5218,2.5216,2.5215,2.5206,2.5198,2.5211,2.5199,2.5208,2.5209,2.521,2.521,2.5243,2.5211,2.5211,2.5211,2.5211,0,2.5279,2.528,2.5265,2.5265,2.5268,2.5255,2.5258,2.5252,2.5247,2.5247,2.5236,2.5237,2.5224,2.5225,2.5218,2.5223,2.5222,2.522,2.5218,2.522,2.5221,2.5219,2.5217,2.5211,2.5211,2.5211,2.5211,0,2.5298,2.5288,2.5288,2.5277,2.5275,2.5277,2.5269,2.527,2.5264,2.5265,2.5265,2.5255,2.5255,2.5247,2.5245,2.5241,2.525,2.5245,2.5252,2.525,2.5261,2.526,2.5293,2.5298,2.5263,2.5263,2.5263,0,2.5307,2.5308,2.5299,2.5298,2.5294,2.5293,2.5292,2.5281,2.5281,2.5276,2.5278,2.5278,2.5277,2.5279,2.5273,2.5273,2.5269,2.5281,2.5269,2.5273,2.527,2.527,2.5271,2.5283,2.5283,2.5284,2.5284,0,2.5325,2.5321,2.5319,2.5316,2.5315,2.5312,2.5309,2.531,2.5299,2.53,2.53,2.53,2.53,2.5301,2.5301,2.5298,2.529,2.5288,2.5291,2.5293,2.5297,2.5296,2.5259,2.5287,2.5287,2.5286,2.5286,2.5286,2.534,2.5341,2.5336,2.5335,2.5332,2.533,2.5332,2.5327,2.5327,2.5326,2.5321,2.5323,2.5321,2.532,2.5319,2.5322,2.5317,2.532,2.5321,2.5321,2.5324,2.5297,2.5322,2.5322,2.5322,2.5322,2.5322,0,2.5357,2.5354,2.5354,2.535,2.5351,2.5345,2.5342,2.5343,2.5345,2.5344,2.5344,2.5347,2.5349,2.5345,2.5347,2.5351,2.5348,2.5352,2.5351,2.5352,2.5328,2.5326,2.5355,2.5355,2.5355,2.5355,2.5355,2.5355,2.5366,2.5369,2.5366,2.5369,2.5366,2.5368,2.5368,2.5368,2.5367,2.537,2.5372,2.537,2.5368,2.5371,2.5374,2.5373,2.5375,2.5381,2.5378,2.5356,2.5353,2.535,2.5348,2.5381,2.5381,2.5402,2.5402,2.5402]},{"header":{"parameterUnit":"m.s-1","parameterCategory":1,"la1":30.2991,"la2":30.254,"lo1":-89.0895,"lo2":-89.0444,"dy":0.0017,"dx":0.0017,"nx":28,"ny":28,"refTime":"2023-03-30T21:00:00:Z","depth":0,"parameterNumber":3,"parameterNumberName":"V-component_of_WINDS"},"data":[0,0,0,0,0,0,0,0,0,0,0,0,0,0,0,0,0,0,0,0,0,0,0,0,0,0,0,0,0,0,0,0,0,0,0,0,0,0,0,0,0,0,0,0,0,0,0,0,0,0,0,0,0,0,0,0,0,0,3.4471,3.4473,0,3.4638,3.464,3.4642,3.4681,3.468,3.4679,3.4678,3.4843,3.4848,3.4853,0,0,0,0,0,0,0,0,0,0,0,0,0,3.4178,3.4183,3.4471,3.4473,3.4475,3.4638,3.464,3.4643,3.4681,3.468,3.4679,3.4677,3.4841,3.4847,3.4854,0,0,0,0,0,0,0,0,0,0,0,0,0,3.4321,3.4185,3.4471,3.4515,3.452,3.4638,3.464,3.4643,3.4682,3.468,3.4678,3.4677,3.4839,3.4847,3.4855,3.4939,0,0,3.488,3.4883,0,0,0,0,0,0,0,0,3.4313,3.4332,3.4506,3.4512,3.4518,3.4637,3.4597,3.4742,3.4682,3.462,3.4678,3.4676,3.4775,3.4789,3.4823,3.4946,3.4953,3.488,3.4885,3.4889,3.4891,0,0,0,0,0,0,0,3.4303,3.4325,3.4537,3.4508,3.4516,3.4523,3.4542,3.4625,3.4705,3.4625,3.4629,3.4648,3.4778,3.4815,3.4828,3.4956,3.488,3.4887,3.4892,3.4896,3.5152,3.5153,0,0,0,0,0,0,3.4286,3.4316,3.4532,3.4542,3.441,3.453,3.4551,3.4601,3.4704,3.4718,3.465,3.4649,3.4802,3.4818,3.4833,3.4936,3.4889,3.4896,3.4901,3.515,3.5152,3.5154,0,0,0,0,0,0,3.428,3.4305,3.4525,3.443,3.4459,3.4537,3.4593,3.4605,3.4642,3.4723,3.4736,3.4673,3.4802,3.4822,3.4912,3.4942,3.49,3.4907,3.5147,3.515,3.5153,3.5143,0,0,0,0,0,0,3.4271,3.4303,3.4338,3.4431,3.4464,3.4603,3.4595,3.4609,3.4657,3.4658,3.4748,3.4762,3.4802,3.4899,3.492,3.4953,3.4914,3.5145,3.5149,3.5152,3.5141,3.5145,3.5149,0,0,0,0,0,3.4261,3.4327,3.4339,3.4365,3.4509,3.4605,3.4623,3.467,3.4659,3.4693,3.4744,3.4759,3.4936,3.4908,3.4932,3.4967,3.5143,3.5148,3.5152,3.5139,3.5144,3.5149,0,0,0,0,0,0,3.4234,3.434,3.4355,3.4454,3.452,3.4611,3.4656,3.4675,3.4744,3.4742,3.4795,3.4815,3.49,3.4943,3.4911,3.5052,3.5039,3.5048,3.5021,3.5027,3.5031,3.5018,3.4921,0,0,0,0,0,3.424,3.4311,3.4399,3.4478,3.4511,3.4577,3.4621,3.4651,3.4721,3.4749,3.4807,3.4872,3.4942,3.4987,3.5056,3.5147,3.5165,3.5183,3.5187,3.519,3.5196,3.5244,3.5252,3.5168,3.5168,3.5168,0,0,3.4252,3.4319,3.4361,3.4474,3.4529,3.4599,3.4601,3.4675,3.4726,3.4759,3.4848,3.4892,3.4968,3.5058,3.51,3.5096,3.5224,3.5195,3.5197,3.5202,3.525,3.5257,3.5264,3.5171,3.5171,3.517,0,0,3.431,3.437,3.444,3.4495,3.4579,3.4622,3.4639,3.4727,3.4758,3.4848,3.4873,3.4934,3.5054,3.5106,3.5149,3.5224,3.5238,3.5244,3.5264,3.531,3.5317,3.5323,3.5347,3.5355,3.5251,3.5251,3.5251,0,3.4315,3.4423,3.4474,3.4547,3.4594,3.4629,3.4699,3.4749,3.485,3.488,3.4875,3.5025,3.5079,3.518,3.5198,3.5232,3.525,3.5234,3.5312,3.5319,3.5325,3.5349,3.5358,3.5251,3.5251,3.5251,3.5251,0,3.4422,3.4497,3.4544,3.4641,3.4694,3.4765,3.4824,3.4871,3.4896,3.4939,3.5027,3.5093,3.5175,3.5201,3.5226,3.5305,3.5299,3.5302,3.529,3.5333,3.5355,3.5365,3.5251,3.5251,3.5251,3.5251,0,0,3.4468,3.4593,3.4609,3.4652,3.4746,3.4803,3.4874,3.4955,3.4993,3.5061,3.5119,3.5219,3.5222,3.527,3.5301,3.5341,3.5392,3.5339,3.5341,3.5345,3.548,3.5476,3.5485,3.5403,3.5405,3.5407,3.5472,0,3.4536,3.4666,3.4713,3.4819,3.4886,3.4919,3.498,3.5042,3.5084,3.5145,3.519,3.5259,3.5259,3.5287,3.5329,3.5377,3.542,3.5374,3.5455,3.5457,3.5434,3.5498,3.5495,3.5553,3.5482,3.5484,3.5485,0,3.4632,3.4702,3.4815,3.4898,3.4928,3.4983,3.506,3.5119,3.5188,3.5215,3.5268,3.5295,3.5367,3.5351,3.5449,3.5416,3.5452,3.548,3.5484,3.5492,3.5473,3.5505,3.5574,3.5582,3.55,3.5498,3.5497,0,3.4651,3.4773,3.4856,3.4893,3.4993,3.5029,3.5072,3.5141,3.5186,3.5252,3.5281,3.5354,3.5394,3.5448,3.5493,3.5478,3.5585,3.5574,3.5607,3.5606,3.5627,3.5625,3.57,3.5653,3.5653,3.5653,3.5653,0,3.472,3.4787,3.4866,3.4917,3.4992,3.5043,3.5115,3.5159,3.522,3.5277,3.5309,3.5362,3.5419,3.5479,3.5514,3.5588,3.5606,3.5627,3.5635,3.5624,3.562,3.5647,3.5643,3.5655,3.5655,3.5654,3.5654,0,3.4753,3.4809,3.4901,3.4988,3.5011,3.5062,3.5135,3.5184,3.5226,3.5298,3.5318,3.5384,3.5455,3.5506,3.5597,3.562,3.5699,3.5708,3.5676,3.568,3.5709,3.5705,3.5802,3.5817,3.5761,3.5762,3.5762,0,3.4793,3.4846,3.4938,3.498,3.5023,3.509,3.5136,3.5188,3.5234,3.5316,3.5354,3.5428,3.549,3.5601,3.5655,3.5724,3.5733,3.5763,3.5744,3.5729,3.5731,3.5727,3.5731,3.5765,3.5765,3.5766,3.5766,0,3.4856,3.4881,3.4948,3.5024,3.5078,3.514,3.5202,3.5233,3.5295,3.5345,3.5419,3.5467,3.556,3.5631,3.5706,3.5746,3.5765,3.5772,3.5782,3.577,3.5748,3.5758,3.5681,3.5769,3.5768,3.5768,3.5768,3.5768,3.4893,3.494,3.5012,3.5084,3.5136,3.5193,3.5242,3.5291,3.5355,3.5436,3.5462,3.5538,3.5603,3.5705,3.5746,3.5804,3.5802,3.5819,3.5823,3.5825,3.5824,3.574,3.5818,3.5818,3.5818,3.5818,3.5818,0,3.4956,3.5004,3.507,3.5156,3.5212,3.5227,3.5296,3.534,3.5408,3.5468,3.5528,3.5611,3.5681,3.574,3.581,3.5845,3.5855,3.5862,3.5859,3.5867,3.5822,3.5805,3.5852,3.5852,3.5852,3.5852,3.5852,3.5852,3.4995,3.5075,3.5108,3.5212,3.5259,3.5336,3.5373,3.5424,3.5472,3.5565,3.5623,3.5662,3.5721,3.5796,3.5858,3.5874,3.5897,3.5901,3.5918,3.5875,3.5871,3.5867,3.585,3.5906,3.5906,3.5958,3.5958,3.5959]}]]